Location: *
(37.9500°N, 27.3666°E)
Time: 05:10:47
(UTC+00:00)

Cosmos 2219 Rocket - Pass Details

Date: 24 October 2021
Orbit: 826 x 848 km, 71.0° (Epoch: 03 December)

Event Time Altitude Azimuth Distance (km) Brightness Sun altitude
Rises 16:26:33 0° 164° (SSE) 3,348 5.2 -13.6°
Reaches altitude 10° 16:29:30 10° 149° (SSE) 2,421 4.3 -14.2°
Maximum altitude 16:33:36 22° 101° (E) 1,757 3.3 -15.0°
Enters shadow 16:33:40 22° 100° (E) 1,758 3.3 -15.0°
